Tracking 18665 objects as of 23-June-2017
HD Live streaming from Space Station
objects crossing your sky now

COSMOS 2251 DEB

Track COSMOS 2251 DEB now!
10-day predictions


NORAD ID: 34131
Int'l Code: 1993-036LC
Perigee: 696.5 km
Apogee: 709.1 km
Inclination: 74.1 °
Period: 98.7 minutes
Semi major axis: 7073 km
RCS: 0.018 m2 (small)
Launch date: June 16, 1993
Source: Commonwealth of Independent States (former USSR) (CIS)
Launch site: PLESETSK MISSILE AND SPACE COMPLEX (PKMTR)

Note: This is SATELLITE DEBRIS
Your satellite tracking list
Your tracking list is empty





NASA's NSSDC Master Catalog

Two Line Element Set (TLE):
1 34131U 93036LC  17173.29150593 +.00001413 +00000-0 +30538-3 0  9997
2 34131 074.1205 127.7883 0008948 167.8765 312.6548 14.59229768440345
Source of the keplerian elements: AFSPC